Theta_e
320 320 319 318 317 317 317 316 314 314 315 316 316 316 317 317 317 317 317 317 317 316 316 317 317 316 316 315 315 315 314 313 313 312 312 313 314 314 314 314 314 313 313 313 312 312 312 311 311 311 311 309 309 309 309 309 308 307 307 306 306 305 304 304 304 304 303 303 304
320 319 318 315 315 316 317 316 315 314 315 316 316 317 317 317 317 317 317 317 317 317 317 317 316 316 315 314 314 315 315 314 313 313 312 314 314 315 314 314 314 313 313 313 313 313 312 312 312 312 311 310 309 309 309 310 309 308 307 306 307 306 305 305 305 304 304 303 303
320 319 319 318 318 317 317 316 316 315 315 316 317 317 317 317 317 317 317 317 317 317 317 317 316 316 315 314 315 315 315 315 314 313 313 314 314 314 314 314 314 313 313 313 314 313 313 312 312 311 311 311 310 310 309 309 308 308 308 307 308 307 307 307 305 304 304 305 304
320 319 318 318 318 317 317 317 316 315 315 315 316 316 317 317 317 317 317 317 317 317 317 317 317 316 315 315 315 316 315 314 314 314 314 314 314 314 314 314 314 314 314 314 314 314 313 313 312 312 311 311 310 310 310 310 308 308 309 309 308 308 307 308 307 306 306 306 304
319 318 318 318 317 318 317 317 316 315 315 315 315 316 317 317 317 317 317 317 317 317 317 317 317 317 316 316 315 315 315 314 312 313 315 314 314 314 314 314 314 314 314 314 314 314 314 313 313 313 312 311 311 311 310 310 309 308 308 309 308 308 308 308 308 307 307 306 305
318 318 318 318 317 317 317 317 316 315 315 315 315 315 316 317 317 317 317 317 317 317 316 315 315 315 315 316 315 316 316 315 314 314 315 315 315 314 314 313 314 314 314 314 314 314 314 313 314 313 312 311 311 311 310 309 309 308 308 308 308 308 308 308 308 307 306 306 306
318 318 317 317 318 317 317 316 316 315 314 314 314 314 315 316 317 317 317 317 317 317 316 314 315 315 315 316 316 316 316 316 316 316 316 315 315 315 314 314 314 314 314 314 314 314 314 314 314 313 311 310 311 310 309 309 309 309 308 308 308 308 308 307 307 307 306 306 305
318 317 317 317 317 317 317 316 315 314 314 314 314 314 315 316 316 316 317 317 317 317 316 315 316 316 316 316 316 316 316 316 316 316 316 316 316 316 315 315 315 314 314 315 315 314 314 315 315 314 313 311 311 310 309 308 309 308 308 308 308 308 308 308 308 307 306 305 305
317 316 316 317 317 317 316 316 315 314 314 314 313 314 315 315 316 316 316 317 316 316 317 317 316 316 316 316 316 317 317 317 317 317 317 317 316 317 316 316 316 315 315 315 315 314 314 315 314 314 313 313 312 311 310 308 308 308 308 308 308 307 307 308 307 307 306 306 305
316 315 315 316 316 316 316 315 314 314 314 314 314 314 314 312 314 316 317 317 316 316 317 317 316 316 315 316 316 317 317 318 317 317 317 317 317 317 317 317 316 316 315 315 315 314 314 314 314 314 314 313 312 311 310 309 309 308 308 309 308 307 306 306 306 306 306 306 305
314 314 314 315 315 315 315 314 314 314 315 316 315 315 314 312 314 315 316 317 316 317 317 317 316 316 316 316 316 316 317 318 318 318 317 317 317 317 317 317 317 316 316 315 315 315 314 315 314 314 313 313 312 312 311 309 309 308 308 309 308 307 306 306 306 306 306 306 305
313 313 314 314 314 314 313 313 313 314 315 316 316 315 315 315 315 315 315 316 316 317 317 317 317 316 316 316 316 316 316 317 318 318 318 318 318 317 318 318 317 317 316 316 316 315 315 315 314 313 313 312 313 312 312 310 309 308 308 308 307 307 306 307 306 306 307 306 305
313 313 313 313 313 313 313 312 313 314 315 316 316 316 316 315 315 314 314 314 315 316 317 317 316 316 316 316 316 317 317 317 318 318 318 318 318 318 318 318 317 317 317 316 316 316 316 315 314 313 313 312 313 313 312 311 310 309 308 308 307 307 307 307 307 307 306 306 305
313 312 312 312 312 312 312 312 313 314 316 316 316 316 316 316 314 314 314 315 315 316 317 316 316 316 316 316 316 316 317 317 317 317 318 318 318 318 318 318 318 317 317 317 317 316 316 315 315 314 313 313 313 313 312 312 311 310 309 308 308 307 307 307 307 307 306 305 305
314 313 312 311 311 312 312 312 314 315 316 316 317 317 316 316 315 314 314 315 315 315 316 317 317 316 316 316 316 316 316 317 317 317 317 317 318 318 318 318 318 318 317 317 317 317 316 316 315 314 314 313 313 313 312 312 311 311 310 310 309 308 308 307 307 307 306 306 305
316 314 312 312 311 312 312 313 314 315 316 317 317 317 317 317 316 315 315 315 315 315 315 316 316 317 316 316 316 316 316 316 316 317 317 317 317 318 318 318 318 318 317 317 317 317 317 316 316 315 314 314 314 313 313 312 312 312 311 311 310 309 309 308 307 307 307 306 306
317 316 314 313 312 312 313 314 315 316 317 317 318 318 318 317 317 315 314 315 316 316 315 315 316 316 316 315 315 316 316 316 316 316 316 317 317 317 318 318 318 318 317 317 317 317 317 316 316 316 315 315 314 314 313 313 312 312 312 311 311 310 309 308 308 308 307 306 306
318 317 316 315 314 314 314 315 315 317 317 318 318 318 318 318 317 316 315 315 316 316 316 315 316 316 316 316 316 316 316 316 316 316 316 317 317 317 318 318 318 318 318 318 317 317 317 317 316 316 316 315 315 314 314 313 313 312 312 312 311 311 311 309 309 309 308 307 307
318 318 318 317 317 316 316 315 316 317 318 318 318 318 318 318 317 317 317 316 316 316 316 316 316 316 316 316 316 315 315 316 315 315 316 316 317 317 318 318 318 318 318 318 318 317 317 317 316 316 316 315 315 315 314 314 313 313 313 312 312 312 311 311 310 310 309 309 308
318 318 318 319 318 318 317 317 318 318 318 319 319 319 319 318 318 317 317 317 316 317 317 317 316 316 316 316 316 316 315 316 316 316 315 316 316 317 317 318 318 318 318 318 318 318 317 317 317 316 316 315 315 314 314 314 314 313 313 313 312 312 312 311 311 311 310 310 309
318 318 318 319 319 319 319 319 319 319 319 319 319 319 319 319 318 318 317 317 317 317 317 317 317 317 317 316 316 316 316 316 316 316 316 316 316 316 317 318 318 318 318 318 318 318 318 317 317 317 316 315 314 314 314 314 314 313 313 313 313 313 312 312 312 311 311 311 310
318 318 318 319 319 319 319 319 320 320 320 320 320 320 320 319 319 318 318 317 317 318 318 318 318 318 318 318 317 317 317 317 317 317 317 317 317 316 317 317 317 318 318 318 318 318 318 317 317 317 316 315 315 315 314 314 314 313 313 313 313 313 312 312 312 312 312 311 311
318 318 318 318 318 318 318 319 319 319 319 320 320 320 320 320 319 319 319 318 318 317 318 318 319 319 319 319 319 319 318 318 318 317 317 317 317 317 317 317 317 317 317 318 318 319 318 318 317 317 317 316 316 315 315 314 314 314 313 313 313 312 312 312 312 312 312 312 311
318 318 318 318 318 318 318 318 319 319 319 319 319 320 320 320 320 320 319 319 318 318 318 319 320 320 320 320 320 319 319 318 318 318 317 317 317 317 317 317 317 317 317 317 317 316 316 317 318 318 317 317 316 316 315 315 315 314 314 313 312 312 312 312 312 312 312 312 312
318 318 318 318 318 318 318 318 318 319 319 319 319 320 320 320 320 320 320 319 319 319 319 319 319 320 320 320 321 320 320 319 319 318 318 317 317 317 318 318 318 318 317 315 310 307 307 310 314 317 318 318 317 317 316 315 315 314 314 314 313 312 312 311 311 311 311 311 312
318 318 318 318 318 318 318 318 318 319 319 319 319 319 319 320 320 320 320 320 320 320 320 319 320 319 319 320 320 320 320 320 320 319 318 318 318 318 317 318 318 318 317 313 306 302 302 303 306 309 314 318 317 316 315 315 314 314 314 313 313 312 312 311 311 311 311 311 311
318 318 318 318 318 317 318 318 319 319 319 319 319 319 319 319 320 320 320 320 320 320 320 321 321 318 317 320 320 320 321 321 320 320 319 319 318 318 318 318 318 318 316 310 304 301 300 300 301 303 308 316 317 316 315 315 314 314 313 313 313 313 312 311 311 310 310 310 310
318 318 318 318 317 317 318 318 318 319 319 319 319 319 319 319 319 319 319 320 320 320 321 321 321 320 320 321 321 320 320 321 321 320 320 320 318 318 318 318 318 317 313 307 303 301 300 300 300 301 303 308 314 316 315 315 314 313 314 314 313 313 312 312 312 311 310 310 310
318 318 318 317 317 318 318 318 318 318 319 319 319 319 319 319 319 319 319 319 319 319 320 321 321 321 321 321 321 320 320 320 321 321 320 319 319 319 318 318 318 315 309 303 302 301 300 300 300 299 300 303 311 316 317 316 315 314 314 314 314 313 313 312 312 312 311 310 310
319 318 318 318 317 318 318 318 318 318 319 319 319 319 319 319 319 319 319 319 319 319 319 320 321 321 321 320 320 320 320 320 320 320 320 320 319 319 318 317 318 315 309 302 301 300 300 301 300 300 299 300 307 313 317 317 316 315 315 314 314 313 313 313 312 312 311 311 310
319 319 318 318 318 318 318 318 318 319 319 319 319 319 319 318 318 319 319 319 319 318 318 318 319 320 320 320 320 320 320 320 320 320 320 319 318 317 318 318 318 315 309 300 298 298 298 298 299 299 298 298 304 311 317 317 317 316 315 315 314 313 313 313 312 312 311 311 310
320 319 319 319 318 318 319 319 319 319 319 319 319 319 318 318 319 319 319 319 319 318 318 318 319 319 319 319 319 319 319 320 320 320 320 319 319 319 319 318 318 315 308 299 296 294 294 294 295 295 295 295 301 309 316 317 317 316 316 314 313 313 312 313 313 312 312 312 311
320 320 319 319 319 319 320 320 320 320 320 319 319 319 319 319 319 319 319 319 319 319 319 319 319 319 319 318 319 319 319 319 319 318 318 318 319 319 319 318 320 315 306 296 293 292 292 292 292 293 292 292 299 307 314 316 317 317 316 314 314 313 312 310 309 309 309 309 310
320 320 320 320 320 320 320 320 320 320 320 320 320 319 319 319 319 319 319 319 319 319 319 319 319 319 319 319 319 319 319 318 319 320 320 319 319 319 319 320 321 309 296 292 291 291 291 292 292 291 291 290 297 304 310 313 315 317 317 316 313 309 304 300 298 298 298 299 302
321 321 320 320 320 320 320 320 320 320 320 320 320 320 320 320 320 320 319 317 317 318 320 320 320 320 320 319 320 319 319 319 320 321 321 321 319 319 319 320 311 298 290 290 291 291 291 291 291 291 291 291 297 302 307 310 312 313 312 310 303 297 293 291 290 290 290 291 293
321 321 321 321 321 321 321 321 321 320 320 320 320 320 320 320 320 320 319 316 317 318 319 319 320 320 320 320 320 320 319 319 319 319 318 318 318 318 316 311 299 293 290 291 291 291 291 291 291 291 291 293 298 302 305 309 309 306 301 297 292 289 287 287 287 287 288 288 289
322 321 321 321 321 321 321 321 320 320 320 320 320 320 320 321 320 320 319 316 318 318 319 319 319 319 320 320 321 320 319 318 317 315 314 312 312 310 305 297 293 291 290 290 291 291 291 291 291 291 292 294 299 303 306 308 304 297 291 289 288 287 287 286 286 286 287 287 287
322 322 321 321 321 321 321 321 321 320 320 320 321 320 320 321 320 320 318 316 318 319 318 318 318 319 319 321 320 316 311 307 305 304 303 302 300 298 295 292 290 290 290 290 291 291 291 292 291 291 292 294 300 305 307 306 298 292 288 287 286 286 286 286 286 286 286 286 286
322 322 321 321 321 321 321 321 321 321 320 320 320 320 320 320 320 319 317 316 318 318 318 318 318 319 319 317 314 306 298 294 293 292 292 292 291 291 290 290 289 289 289 290 290 291 292 292 292 292 292 294 302 306 306 301 294 290 288 287 286 285 285 285 285 285 285 285 286
321 321 321 321 321 321 321 321 321 321 321 320 320 320 320 319 318 318 317 316 318 318 318 318 319 319 315 308 304 298 293 291 290 289 289 288 289 288 289 288 289 289 289 289 290 291 291 292 292 292 292 294 303 306 304 297 292 289 288 287 286 285 284 284 284 284 284 284 285
321 321 320 320 321 321 321 320 320 321 320 320 320 319 318 316 317 317 318 318 317 318 319 321 317 311 304 299 296 293 290 288 288 287 287 287 287 287 287 287 287 288 288 289 289 290 291 292 292 292 293 294 303 305 301 294 290 288 287 287 286 285 284 284 283 283 283 283 284
Wind_Speed
8 8 7 8 8 8 7 6 6 7 7 8 8 8 8 8 8 7 6 6 6 6 6 7 7 7 8 9 9 9 9 9 10 10 11 11 12 12 13 12 11 10 9 8 8 8 8 8 7 6 5 5 6 6 6 6 6 7 7 7 6 6 7 8 8 8 8 7 6
9 8 8 7 7 7 7 6 6 6 7 7 7 8 8 8 8 7 7 7 6 6 6 6 7 8 8 9 9 9 9 8 10 10 10 11 12 13 13 12 12 11 11 10 9 8 7 8 7 6 5 5 5 6 6 7 7 7 8 8 7 6 6 7 8 8 8 7 6
9 9 9 9 8 8 8 7 7 8 8 8 7 7 8 7 7 7 7 7 7 7 6 6 7 8 9 9 9 9 8 8 9 10 10 10 11 12 13 12 12 12 11 10 9 8 8 8 7 7 6 6 6 6 6 6 6 7 8 9 7 6 5 6 7 7 6 6 6
10 10 11 11 12 12 10 8 9 9 9 8 8 8 8 7 7 8 8 8 8 8 7 7 8 8 9 9 9 9 8 8 8 9 9 10 11 12 12 12 13 12 12 11 10 10 9 8 7 6 6 7 7 7 7 6 6 6 7 7 6 6 6 6 6 5 5 6 6
10 11 12 12 14 13 12 10 10 9 8 7 7 7 7 8 8 8 9 9 9 9 8 9 9 8 9 9 10 10 9 8 8 8 9 9 10 11 11 12 13 13 12 12 12 11 10 9 7 6 6 7 7 7 7 7 7 7 6 5 6 6 6 6 6 5 5 5 5
11 12 13 13 14 13 12 11 11 10 9 7 7 7 8 8 8 9 9 10 10 10 10 10 10 9 9 10 10 10 10 9 8 8 8 9 9 10 11 12 13 13 12 12 12 12 11 10 7 6 6 6 7 7 7 8 8 7 7 6 6 6 6 6 6 5 5 6 7
12 13 14 14 15 14 13 12 12 11 10 8 8 9 9 9 9 10 11 10 10 10 10 10 10 10 10 10 10 10 10 10 9 9 9 9 9 10 10 11 12 13 13 13 13 12 11 10 7 6 6 6 6 7 8 8 8 8 8 7 6 6 6 7 6 5 6 8 9
14 14 15 15 16 16 15 15 14 13 11 9 9 10 10 10 10 11 11 10 10 10 10 10 11 11 11 11 11 11 11 11 11 10 10 9 10 10 11 11 12 12 13 13 13 12 11 10 8 7 7 6 6 6 8 9 9 9 9 9 7 6 6 7 7 7 7 9 10
16 16 16 16 17 18 18 18 17 15 13 10 10 10 10 10 11 11 11 10 10 11 11 10 12 12 13 13 13 12 12 12 12 12 11 11 11 11 11 11 12 12 12 12 12 13 12 9 8 7 7 6 7 7 8 10 11 11 11 10 8 7 7 7 8 8 9 10 11
18 18 18 18 19 20 20 20 19 16 13 9 9 10 10 10 10 10 10 9 10 11 12 12 13 13 13 14 13 13 13 13 13 13 12 12 12 12 12 12 12 12 12 11 12 12 12 10 9 9 8 8 9 9 10 11 12 12 12 9 8 9 9 8 9 9 10 10 11
21 20 20 19 21 22 21 21 18 14 10 7 8 9 10 10 10 9 9 8 10 12 13 13 14 14 14 14 14 14 13 13 13 13 13 13 13 13 13 13 13 13 13 12 11 11 11 10 10 11 11 10 10 11 11 12 13 13 13 10 10 11 11 10 11 11 11 11 12
22 22 21 21 22 22 22 21 16 12 9 7 7 8 9 10 10 9 9 9 11 12 13 13 14 14 14 13 13 13 13 14 14 14 14 14 14 14 14 14 14 14 14 13 12 11 10 11 12 12 13 12 11 11 11 13 13 14 14 12 12 12 13 13 13 12 11 11 12
21 21 21 21 22 22 21 18 14 11 9 8 7 7 8 9 10 10 10 10 11 11 12 12 13 14 14 13 13 13 13 14 14 14 14 15 15 15 15 15 15 15 14 14 13 12 12 12 13 14 14 14 12 12 12 14 14 14 14 14 14 14 14 15 14 13 12 12 12
20 21 21 21 21 20 19 16 13 11 9 8 7 7 7 8 8 9 9 10 10 10 10 11 12 12 12 13 13 13 14 14 15 15 15 15 15 15 15 15 15 15 14 13 13 13 13 13 14 15 15 15 14 14 14 14 14 15 15 15 15 15 15 15 15 14 13 13 13
19 21 21 21 21 19 17 15 12 10 9 9 8 7 7 7 7 7 8 9 9 9 9 10 10 11 12 13 13 14 14 14 15 16 16 16 16 16 16 16 16 15 15 14 14 14 15 15 15 15 16 16 16 15 15 15 15 15 16 16 16 16 16 15 15 14 14 14 14
18 19 21 21 20 19 17 15 12 10 10 9 8 7 7 6 7 7 8 9 9 8 9 10 10 10 11 12 13 14 14 14 15 16 16 16 17 17 17 17 17 16 16 15 15 15 15 15 15 15 16 16 16 16 15 15 15 16 16 16 16 16 16 16 15 15 15 15 15
17 18 19 20 20 19 18 15 13 11 10 10 10 9 8 7 7 7 8 9 8 8 9 10 10 10 11 11 12 13 14 14 15 15 16 16 17 17 18 18 18 17 17 17 16 16 16 16 15 15 16 16 16 16 16 16 16 16 16 16 16 16 16 15 15 15 15 15 16
16 17 18 20 20 20 19 17 15 13 12 12 11 10 9 8 8 8 8 9 9 10 11 11 11 11 11 12 12 12 12 14 14 15 15 16 17 17 18 18 18 18 18 17 17 17 17 17 16 15 15 15 16 16 16 16 16 16 16 16 16 16 16 15 15 15 15 16 16
16 16 17 19 20 20 19 18 17 15 14 13 12 12 11 10 10 9 9 10 10 11 12 12 12 11 12 12 12 12 12 12 14 15 15 15 16 16 17 18 18 18 18 18 18 18 17 17 17 16 15 15 15 15 15 16 16 16 16 16 16 16 16 16 16 15 15 16 16
16 16 17 18 18 19 19 18 17 16 15 13 13 13 13 13 12 11 11 11 11 12 12 13 13 12 12 12 12 12 11 11 13 14 14 14 14 15 16 17 17 18 18 18 18 18 18 17 17 16 16 16 15 15 15 16 16 16 16 16 16 16 16 16 16 16 16 16 16
16 16 16 16 17 18 18 17 17 16 15 14 14 14 14 14 14 13 13 13 12 12 13 14 14 13 13 13 13 12 11 10 11 12 13 13 13 14 14 15 15 16 17 17 17 18 18 18 17 17 16 16 16 16 16 15 15 16 16 15 15 16 16 16 16 16 16 16 16
16 15 15 16 16 16 16 16 16 16 15 15 15 15 15 15 15 15 14 13 13 13 13 13 14 14 14 13 13 12 11 10 10 11 11 11 12 12 12 12 13 14 15 16 17 17 18 18 17 17 17 16 16 16 16 16 15 16 16 16 16 16 16 16 16 16 16 16 16
15 14 14 14 15 15 15 15 15 15 15 14 14 14 15 15 15 15 14 14 13 13 13 12 12 13 13 13 13 12 11 11 10 11 11 11 11 11 11 11 12 13 14 14 15 16 16 16 17 17 17 16 17 17 17 16 16 16 16 16 16 16 16 16 16 16 16 16 15
14 14 13 12 14 14 14 14 15 15 15 14 14 14 14 14 14 14 14 14 14 13 13 12 11 12 12 13 13 13 12 12 12 12 11 11 11 12 11 11 11 12 12 11 12 13 14 13 14 15 16 16 16 16 16 16 16 16 16 16 16 16 15 15 16 16 16 16 15
14 13 13 12 13 14 14 14 14 15 15 14 14 13 13 13 13 13 14 14 14 14 14 13 12 12 12 12 13 13 13 13 13 13 13 13 12 12 12 11 11 11 10 9 11 12 13 12 12 13 14 14 15 15 15 15 15 16 16 15 15 15 15 15 15 15 15 15 15
14 14 14 14 14 14 14 14 14 15 15 14 14 14 13 13 13 13 13 14 14 14 14 14 13 12 12 12 13 13 13 13 13 14 14 13 14 13 13 12 11 10 9 10 12 13 14 14 13 13 13 13 13 13 13 13 14 15 15 15 14 14 14 14 14 14 14 13 13
15 15 15 14 14 15 15 15 14 14 14 14 14 14 14 13 12 13 13 14 14 14 14 14 14 13 12 12 13 14 14 13 14 14 14 14 14 14 14 13 11 10 9 11 12 14 15 16 16 15 13 12 12 12 12 12 12 13 13 14 13 13 13 13 14 13 13 12 12
16 16 16 16 16 16 15 15 15 15 15 15 15 14 14 14 14 13 14 14 14 14 14 14 14 13 11 11 14 15 15 15 14 14 14 15 15 15 14 13 12 11 10 12 13 14 15 16 17 16 15 13 11 11 11 11 11 11 12 12 12 13 13 13 13 12 12 12 11
17 17 17 17 17 17 16 16 16 16 16 15 15 15 15 14 15 15 14 14 14 14 13 11 11 10 10 12 13 15 16 16 15 14 14 14 15 15 14 14 13 12 12 13 14 15 16 17 17 18 17 15 12 11 11 11 11 11 11 11 11 12 12 13 12 11 11 10 10
17 17 17 18 18 18 17 17 17 17 16 15 15 15 15 15 16 16 16 15 15 14 12 9 9 10 11 13 13 14 14 15 14 14 14 15 15 15 14 13 13 12 12 13 14 15 16 17 19 19 20 19 15 12 11 12 12 11 11 10 11 11 12 12 12 11 11 10 10
17 17 17 18 18 18 18 17 17 17 16 15 16 16 16 16 17 17 16 16 14 12 10 9 11 12 13 12 12 13 13 14 14 14 15 15 15 15 14 14 13 12 10 6 4 5 7 10 13 15 18 20 16 14 12 13 13 12 11 10 10 11 10 10 10 10 10 10 10
17 17 17 17 18 18 17 17 16 16 16 16 16 17 17 17 17 16 15 13 12 11 11 11 12 12 12 11 11 11 12 13 14 14 14 15 15 15 15 14 14 11 4 6 9 9 9 9 9 10 12 14 14 13 13 13 13 12 11 10 8 5 3 3 4 5 6 7 7
17 17 17 17 17 17 17 16 16 16 16 16 17 17 17 17 16 16 14 13 12 12 13 12 13 12 12 10 10 11 11 12 13 13 13 14 14 14 14 13 12 6 3 13 13 12 11 10 9 8 8 8 9 11 12 12 11 10 8 6 2 4 9 11 11 10 9 9 6
18 18 17 17 17 16 16 16 16 16 16 16 17 17 17 17 17 16 15 13 12 11 12 11 11 11 11 10 10 10 11 11 11 11 11 12 12 11 11 10 4 6 14 16 14 13 11 10 8 6 5 3 5 7 8 9 7 6 5 4 6 9 11 12 13 14 14 14 11
18 18 18 17 16 16 16 16 16 16 16 16 17 17 17 16 16 16 14 12 11 11 11 11 11 10 10 10 10 10 10 9 9 9 9 9 8 7 5 2 7 14 19 17 15 13 12 11 8 6 3 2 3 3 3 4 4 5 7 10 11 12 12 12 12 13 13 13 12
18 18 18 17 16 16 16 15 15 16 16 17 17 17 16 15 14 13 12 10 10 11 11 11 10 11 11 10 9 8 6 6 6 5 5 4 3 1 4 9 12 14 16 16 15 14 12 11 8 4 2 3 3 2 2 3 6 10 13 13 13 13 14 14 13 13 12 12 13
18 18 17 17 16 16 16 15 16 16 16 17 16 16 15 15 12 11 10 9 10 11 11 10 10 10 11 10 7 3 0 3 3 4 5 6 7 9 11 12 12 13 14 17 16 14 12 10 7 3 2 4 4 5 6 7 9 11 13 13 13 13 13 12 12 13 14 15 15
17 17 17 16 16 16 16 15 16 16 16 16 15 14 13 13 11 10 9 9 9 10 11 10 10 10 8 6 2 7 11 13 13 12 12 12 12 13 13 13 12 12 13 17 17 15 13 11 8 3 1 4 6 7 8 9 10 11 12 12 12 11 11 9 10 12 15 18 19
16 16 16 16 16 16 16 16 16 16 16 15 13 12 11 10 9 8 8 8 8 8 9 9 8 6 3 5 10 14 16 16 17 17 15 15 15 15 14 13 12 12 13 17 18 17 15 13 10 7 3 4 6 8 9 10 12 12 11 10 10 10 10 9 9 10 13 17 22
14 14 15 15 15 15 15 16 16 15 14 13 12 11 10 8 8 7 7 7 7 7 7 7 4 3 8 12 14 16 17 18 18 17 16 16 16 16 15 13 12 13 15 19 20 20 19 17 14 11 7 2 6 9 11 11 12 11 10 9 9 9 9 9 9 9 11 14 17
13 13 14 14 14 15 15 15 15 14 12 11 11 10 8 7 7 7 7 7 7 6 5 3 8 13 15 15 15 17 18 19 18 16 16 16 15 15 14 13 14 14 16 20 22 23 22 21 19 16 11 4 7 10 11 11 12 11 11 9 8 8 8 8 9 9 10 11 12
Wind_Direction
153 160 168 178 193 203 206 195 175 168 167 170 163 156 151 149 151 153 155 156 158 161 164 167 170 172 174 175 174 172 168 162 163 164 165 165 166 168 170 173 175 177 177 176 173 173 174 175 173 174 176 177 179 181 184 184 182 182 185 188 192 193 194 197 202 203 201 199 197
155 160 166 174 193 206 211 204 183 172 169 168 159 152 148 148 152 155 157 160 162 163 164 166 169 171 174 176 177 175 171 163 160 162 164 166 167 168 170 173 176 178 179 178 175 174 175 175 175 176 178 179 179 182 186 189 184 183 187 191 193 193 193 198 205 206 205 204 203
156 160 166 172 187 200 208 208 191 179 172 166 157 151 148 150 154 158 161 164 165 165 166 168 170 172 173 177 179 179 175 167 161 161 163 167 168 169 170 173 176 179 181 181 179 178 178 177 176 178 180 182 182 185 189 191 185 185 189 195 195 195 196 203 207 207 207 209 208
159 163 167 173 183 192 200 205 195 186 177 166 157 153 152 155 158 161 163 164 166 168 171 172 172 173 174 176 180 181 181 174 165 163 164 167 169 169 171 173 176 179 182 184 183 182 180 177 178 180 182 182 184 187 190 191 187 188 193 197 197 196 199 205 206 206 208 213 213
164 168 171 174 180 186 193 200 196 190 182 171 163 160 161 162 162 162 163 167 171 173 175 175 175 175 175 176 179 181 182 179 172 168 168 170 170 170 171 172 176 179 182 185 185 184 182 179 181 183 185 185 187 190 191 187 187 190 195 200 200 199 202 205 206 206 207 213 216
169 172 174 174 178 182 187 194 195 194 190 183 176 172 169 167 165 165 167 170 172 174 175 175 176 175 175 175 177 180 183 184 180 177 175 175 174 172 171 172 177 180 183 185 186 185 183 181 184 186 188 189 192 193 190 185 187 191 197 201 203 203 203 205 206 206 207 212 216
171 174 176 176 178 181 184 189 193 196 197 197 188 181 176 171 168 167 167 169 171 173 174 176 177 177 175 175 177 181 184 186 186 184 182 181 180 178 176 175 178 180 183 185 186 186 186 185 187 189 190 190 194 194 191 187 188 193 198 203 205 204 203 206 206 205 206 209 213
173 176 178 179 180 182 185 189 194 199 203 204 195 187 180 173 169 167 167 168 171 174 176 178 179 178 178 178 179 182 184 186 188 188 188 186 185 185 183 180 180 182 184 186 186 187 189 188 190 191 191 191 194 195 193 190 191 195 200 204 205 205 205 207 206 205 205 207 211
175 178 180 181 183 185 187 192 198 203 206 206 198 190 183 177 172 169 169 170 173 175 176 179 179 179 179 180 181 183 185 187 189 191 191 190 190 190 190 187 185 185 186 187 187 188 189 190 193 193 193 192 195 196 195 192 194 197 202 205 206 206 207 208 206 204 204 205 209
176 178 181 183 186 188 191 196 203 207 209 206 198 190 185 181 176 173 172 173 174 175 178 179 179 180 181 183 184 185 187 188 190 192 193 193 193 193 194 194 192 190 190 189 189 189 189 191 195 197 197 196 196 197 197 195 197 200 203 206 206 207 208 210 207 204 204 206 208
177 179 182 185 187 189 193 199 206 209 210 205 197 190 185 184 181 178 175 173 174 177 179 179 179 180 182 185 186 188 188 190 191 193 194 195 195 196 197 198 197 196 194 193 191 190 191 194 197 199 199 199 198 198 199 198 200 202 205 207 206 207 209 211 209 207 206 207 208
178 180 183 187 188 191 195 201 206 209 209 205 196 188 185 185 183 179 173 170 173 177 179 179 179 180 182 185 187 188 190 191 192 193 195 197 198 198 199 200 200 200 199 198 195 193 195 197 199 200 200 200 200 200 201 200 202 204 206 208 207 208 210 212 210 210 209 208 209
179 180 183 188 191 195 198 202 206 208 208 206 197 188 183 183 180 176 171 168 171 175 178 179 179 180 182 185 186 188 190 192 192 194 196 198 199 200 201 202 203 203 203 202 200 199 199 200 200 200 201 202 203 203 203 202 203 205 207 208 208 209 211 212 211 211 210 210 211
179 179 183 189 194 198 201 203 205 207 207 206 200 190 182 179 177 174 170 169 170 173 176 178 179 181 183 184 185 187 189 191 193 195 196 198 200 201 203 204 205 205 205 206 205 204 204 204 202 202 202 203 204 205 204 203 204 206 207 208 209 210 212 213 212 210 210 210 213
180 179 183 189 194 198 201 203 204 205 205 205 202 194 186 180 177 176 174 173 173 174 175 177 181 183 184 185 185 187 189 192 193 195 197 199 200 202 203 205 206 206 207 208 208 208 208 208 206 205 204 204 206 206 205 205 206 208 209 210 210 211 212 213 211 210 209 210 213
181 179 181 187 193 198 200 201 202 203 203 204 202 198 192 187 182 180 179 179 178 177 178 180 182 185 187 188 188 188 190 193 195 196 198 199 201 202 203 205 206 207 207 208 209 211 211 212 210 208 207 207 207 207 207 207 209 210 212 212 212 213 213 212 211 210 210 210 212
183 180 180 184 191 195 198 199 200 201 201 202 201 199 197 194 189 186 186 187 185 185 185 186 186 187 189 191 192 192 193 195 196 198 199 200 201 202 203 204 205 206 207 208 209 211 212 213 213 212 210 209 209 209 209 209 210 212 213 215 215 215 214 213 211 211 211 212 214
184 180 180 182 188 193 197 199 199 200 200 200 200 199 199 198 195 193 192 192 192 192 193 193 192 192 192 194 195 196 196 198 199 200 201 201 201 202 203 204 205 206 207 208 209 211 212 213 214 214 213 212 211 211 210 210 212 213 215 216 217 217 216 215 213 213 213 213 216
185 182 181 182 186 191 195 198 199 200 200 199 199 199 199 200 199 198 197 197 198 197 197 198 198 197 197 196 198 198 199 200 201 202 203 203 202 202 203 204 205 205 206 208 209 211 212 213 214 214 214 214 214 213 212 212 213 214 215 217 218 218 218 217 216 215 215 215 217
187 185 184 184 186 189 193 197 199 200 200 199 199 199 200 201 202 202 202 202 201 201 201 202 202 202 202 200 200 200 201 202 203 204 204 204 204 203 203 203 204 205 206 207 209 211 212 213 214 214 214 215 215 215 214 214 214 215 216 217 218 219 220 219 218 217 217 217 218
190 189 188 187 188 190 192 196 198 199 200 200 199 199 200 201 202 204 205 205 203 203 203 204 205 205 205 203 203 203 203 204 204 205 206 207 206 205 204 203 203 204 205 207 208 210 212 213 214 214 214 215 215 215 215 215 216 216 217 218 219 220 220 220 219 219 219 219 218
192 192 191 190 191 192 193 195 197 199 200 200 200 199 199 200 202 204 206 206 206 205 205 206 206 206 206 205 205 205 205 206 206 208 209 209 209 208 207 204 203 204 205 206 208 209 211 212 213 214 214 215 216 216 216 216 217 218 218 219 220 220 220 220 220 220 220 220 219
194 194 193 194 193 194 194 196 198 199 200 201 200 200 199 200 202 203 205 206 207 207 207 207 207 208 207 207 207 207 207 208 209 211 212 212 213 213 212 210 207 207 207 207 208 209 210 212 213 214 214 215 216 217 218 217 218 219 220 220 221 221 221 220 220 220 220 220 220
195 195 196 196 196 196 196 197 198 200 201 202 201 200 200 200 201 202 204 206 207 208 209 209 209 209 209 209 208 208 209 210 211 213 214 215 216 216 216 216 214 213 212 210 208 208 208 210 213 214 215 216 217 218 218 218 219 220 221 221 222 222 222 221 221 220 220 221 220
197 197 198 198 198 198 198 198 199 201 202 203 202 202 202 201 201 202 203 205 207 208 209 210 210 210 210 210 211 210 210 211 212 213 215 216 217 218 219 220 220 220 218 216 211 208 206 207 210 213 216 217 218 219 219 219 220 221 222 222 222 223 223 223 222 221 220 220 219
199 200 200 201 200 200 200 200 201 201 202 203 204 204 204 204 204 204 205 206 207 209 210 211 211 211 210 211 212 212 213 213 213 214 215 217 218 219 220 221 222 223 222 220 215 211 209 207 207 210 213 217 218 219 220 221 221 221 222 223 222 222 223 224 223 222 220 220 218
201 202 202 203 203 203 203 203 203 203 203 204 205 206 206 207 207 207 208 209 209 210 211 212 212 212 211 212 213 213 214 215 215 216 216 217 218 219 220 222 223 223 222 219 217 214 211 209 208 208 210 215 217 218 219 221 221 221 221 222 222 222 221 222 222 221 220 219 218
202 202 203 203 204 204 205 204 204 204 205 205 205 206 207 208 210 211 211 212 212 212 212 213 213 212 212 212 213 214 214 215 216 217 218 219 219 220 221 223 223 223 221 218 216 214 212 211 211 210 209 211 215 217 218 219 219 219 220 221 222 222 221 221 221 220 219 219 218
202 202 202 203 204 205 205 205 205 206 206 206 206 207 208 209 211 212 213 214 215 214 214 214 213 212 212 213 214 214 215 215 216 217 219 220 221 222 223 224 225 224 221 216 214 212 212 212 212 212 211 209 213 216 218 219 220 220 220 220 220 221 221 221 221 220 219 218 217
202 202 202 203 204 205 205 205 206 206 206 207 207 208 209 210 212 213 214 215 216 216 216 214 213 212 212 213 213 214 214 215 216 217 218 220 222 223 225 225 226 226 223 217 215 214 213 212 212 212 211 210 212 217 221 222 222 222 221 221 220 219 220 221 221 220 218 216 216
202 202 203 203 204 205 205 205 205 205 206 207 208 209 210 211 212 213 214 215 217 217 217 214 214 214 213 212 212 213 213 215 216 216 218 219 220 222 224 226 227 227 224 215 221 235 241 240 231 222 216 210 212 215 220 223 223 223 222 221 218 217 217 220 221 222 221 218 217
204 204 204 204 205 205 205 205 205 205 206 207 208 209 210 212 213 213 214 215 216 217 218 218 217 217 216 214 213 213 214 214 215 216 217 217 219 221 223 225 227 224 215 41 24 8 346 324 298 272 251 232 225 223 223 224 224 223 221 217 214 221 256 299 287 270 256 246 237
205 206 206 206 206 206 205 205 205 205 206 207 208 209 211 212 212 213 214 214 215 217 218 219 220 219 219 217 216 215 215 215 216 216 217 217 218 219 220 222 225 225 29 27 15 3 349 335 321 307 290 267 254 244 236 232 229 226 223 223 260 357 8 9 5 359 350 338 317
206 207 207 208 207 207 206 205 205 206 207 208 209 210 211 212 212 213 213 213 214 215 217 219 220 221 220 219 217 216 216 217 218 220 223 224 223 223 224 227 214 34 26 12 2 351 338 326 316 306 291 264 252 250 251 252 253 258 275 321 10 28 35 33 28 22 16 7 4
206 207 208 209 208 208 207 207 207 207 208 210 211 212 212 212 212 212 212 212 212 214 217 219 221 221 222 221 219 217 217 220 225 229 232 236 238 239 241 270 49 36 24 4 354 344 334 322 311 297 263 190 197 221 248 277 323 0 25 45 54 53 49 44 39 32 26 20 22
206 207 208 209 209 209 208 208 209 210 211 212 213 214 213 213 213 212 210 209 210 212 215 218 219 221 222 222 221 219 219 225 236 245 254 264 278 341 45 50 44 30 15 1 353 345 336 325 314 295 221 159 149 132 89 48 43 48 54 65 68 63 55 49 44 39 35 31 31
205 206 207 208 209 209 210 210 210 212 213 214 214 214 214 214 213 211 209 206 208 211 214 216 217 218 219 220 218 214 50 19 5 2 7 17 33 49 57 54 38 23 9 359 354 349 342 334 325 307 169 133 109 92 81 76 72 68 66 65 66 66 64 61 54 49 45 41 39
204 204 206 207 208 209 210 210 212 213 214 215 215 214 214 213 213 210 206 203 205 208 211 213 214 215 215 210 136 66 53 46 43 40 38 40 47 53 56 53 38 22 8 1 358 355 352 348 345 347 108 114 99 90 84 84 84 82 79 76 73 70 67 66 60 55 51 47 45
202 203 204 205 207 208 209 211 212 214 215 215 215 213 212 210 210 208 204 200 201 204 207 209 210 208 183 98 77 67 59 52 49 47 46 48 50 52 52 51 38 24 12 7 5 4 3 2 0 2 26 104 101 95 90 89 89 89 90 89 85 78 71 66 62 58 53 49 47
201 201 202 203 205 207 208 210 212 213 214 214 213 212 211 208 208 206 202 198 198 201 202 201 180 98 72 73 75 71 66 60 56 54 53 53 53 53 51 49 39 28 19 14 13 12 12 11 9 8 10 73 94 95 94 93 94 94 93 91 89 83 76 69 65 61 56 50 47
199 200 201 202 204 205 207 209 211 212 212 211 211 210 208 203 203 202 201 200 200 199 189 128 76 69 69 73 76 75 72 68 64 61 59 58 56 53 49 46 39 32 25 20 19 19 19 19 16 13 14 41 86 96 98 99 99 98 96 94 92 89 84 76 70 65 59 54 49